www.pogodaiklimat.ru

Погода и климат >> Архив погоды >> Россия >> Калмыкия >> Юста


ПОГОДА в Юсте

  • Прогноз погоды в Юсте
  • Монитор погоды в Юсте

АРХИВ ПОГОДЫ в Юсте

Время (UTC), дата Ветер
(напр.,м/с)
 
Видим.   Явления Облачность Т
(С)
Тd
(С)
f
(%)
Тe
(С)
Тes
(С)
Комфортность P
(гПа)
Po
(гПа)
Тmin
(С)
Tmax
(С)
R
(мм)
R24
(мм)
S
(см)
12 16.08 ЮВ 7-11
{14}
20 км пыльный позёмок 3/0
[Cs]
+34.4 +6.0 17 +32 +34 жарко 1010.4 1010.0
15 16.08 ЮВ 6-11
{12}
20 км ясно +31.7 +4.6 18 +29 +30 жарко 1010.2 1009.8 +34.5
18 16.08 ЮВ 2
{11}
10 км 3/0
[Ac trans]
+25.3 +6.9 31 +25 +25 комфорт 1011.8 1011.4
21 16.08 В 2 10 км 3/0
[Ac trans Ci fib]
+21.3 +10.5 50 +23 +23 комфорт 1011.7 1011.3
00 17.08 В 3 10 км 6/0
[Ac trans]
+19.7 +12.1 62 +21 +21 комфорт 1010.8 1010.5
03 17.08 В 3 20 км 8/0
[Ac trans Ci fib]
+20.2 +12.9 63 +23 +23 комфорт 1010.9 1010.5 +17.8
06 17.08 ЮВ 6-10
{11}
20 км 6/0
[Ac trans Ci fib]
+30.7 +7.4 23 +29 +32 жарко 1010.7 1010.3
09 17.08 ЮВ 9-16
{17}
4000 м пыльная буря {метель} 8/0
[Ac trans Ci fib]
+34.6 +6.4 17 +32 +33 жарко 1010.0 1009.7
12 17.08 ЮВ 8-15
{16}
4000 м пыльная буря {метель} 10/0
[Ac As]
+32.3 +7.6 22 +31 +31 жарко 1010.1 1009.7
15 17.08 В 5
{13}
20 км {метель} 10/0
[Ac und]
+30.5 +9.9 28 +30 +30 жарко 1010.6 1010.3 +35.1
18 17.08 ЮВ 6-10
{10}
10 км {метель} 9/0
[Ac und]
+26.9 +13.8 44 +29 +29 жарко 1011.5 1011.2
21 17.08 В 2
{11}
10 км 8/0
[Ac trans Ci fib]
+23.5 +13.5 53 +26 +26 жарко 1011.9 1011.5
00 18.08 штиль 0 10 км 9/0
[Ac trans Ci fib]
+20.4 +12.6 61 +22 +22 комфорт 1011.9 1011.5
03 18.08 В 2 20 км 8/0
[Ac und Ci fib]
+21.3 +11.9 55 +23 +24 комфорт 1011.9 1011.6 +20.0
06 18.08 ЮВ 3 20 км 3/0
[Ac trans]
+30.0 +8.8 27 +29 +36 жарко 1011.9 1011.6
09 18.08 ЮВ 7-12
{14}
20 км пыльный позёмок 4/0
[Ac trans]
+35.5 +2.5 13 +32 +36 жарко 1011.2 1010.9
12 18.08 ЮВ 9-15
{17}
4000 м пыльная буря {метель} ясно +35.6 +4.0 14 +33 +34 жарко 1011.1 1010.8
15 18.08 ЮВ 8-15
{17}
10 км пыльная буря {метель} 4/0
[Ac trans]
+33.1 +4.6 17 +31 +31 жарко 1012.1 1011.7 +37.0
18 18.08 В 3
{13}
10 км {метель} 8/0
[Ac cuf]
+28.7 +6.3 24 +28 +28 жарко 1013.8 1013.5
21 18.08 В 3 10 км 3/0
[Ac trans]
+23.9 +8.9 38 +25 +25 комфорт 1013.4 1013.0
00 19.08 В 2 10 км 5/0
[Ac trans]
+21.4 +11.0 51 +23 +23 комфорт 1013.7 1013.3
03 19.08 В 3 20 км 8/0
[Ac trans Ci fib]
+21.4 +12.7 58 +24 +24 комфорт 1014.3 1013.9 +19.6
06 19.08 ЮВ 4 20 км 8/0
[Ac cuf]
+31.9 +6.9 21 +30 +33 жарко 1015.0 1014.7
09 19.08 ЮВ 9-14
{14}
4000 м пыльная буря {метель} 8/0
[Ac trans Ci fib]
+37.6 +3.6 12 +34 +35 очень
жарко
1014.3 1013.9
12 19.08 ЮВ 8-15
{16}
4000 м пыльная буря {метель} 8/0
[Ac trans Ci fib]
+38.5 +2.3 11 +35 +36 очень
жарко
1014.5 1014.2
15 19.08 ЮВ 6
{15}
20 км {метель} 8/3 600 м
[Sc diur, vesp Ac trans Ci fib]
+35.8 +3.0 13 +33 +33 жарко 1015.6 1015.2 +39.0
18 19.08 В 4
{11}
10 км {метель} 3/0
[Ac trans]
+28.2 +8.8 30 +28 +28 жарко 1017.4 1017.0
21 19.08 В 3 10 км ясно +23.5 +13.3 53 +26 +26 жарко 1017.8 1017.4
00 20.08 В 2 10 км ясно +20.2 +12.4 61 +23 +23 комфорт 1017.6 1017.2
03 20.08 штиль 0 20 км 4/0
[Ac cast]
+20.3 +11.6 57 +22 +22 комфорт 1018.2 1017.9 +18.5
06 20.08 ЮВ 2 20 км 3/0
[Ac cast]
+31.0 +11.5 30 +31 +38 жарко 1019.0 1018.7
09 20.08 Ю 4 20 км 3/0
[Ac trans Ci fib]
+37.8 +0.3 10 +34 +42 очень
жарко
1018.0 1017.7
12 20.08 ЮВ 5-12
{12}
20 км 6/0
[Ac und Ci fib]
+38.7 +1.4 10 +35 +38 очень
жарко
1016.7 1016.4
15 20.08 ЮВ 6
{12}
20 км 8/4 600 м
[Sc Ac und]
+36.0 +3.5 13 +33 +33 жарко 1017.0 1016.7 +39.6
18 20.08 ЮВ 3 10 км 3/0
[Ac trans]
+29.1 +4.5 21 +27 +27 жарко 1018.5 1018.2
21 20.08 ЮВ 3 10 км 4/0
[Ac trans]
+24.6 +5.7 30 +24 +24 комфорт 1017.9 1017.5
00 21.08 Ю 2 10 км 5/0
[Ac trans]
+23.1 +8.1 38 +24 +24 комфорт 1017.5 1017.1
03 21.08 С 2 20 км ясно +19.2 +6.9 45 +20 +21 1017.9 1017.5 +17.7
06 21.08 СВ 3 20 км 3/0
[Ci fib]
+31.5 +4.8 19 +29 +36 жарко 1017.9 1017.6
09 21.08 СВ 4 20 км 3/0
[Ci fib]
+36.2 +2.7 12 +33 +42 жарко 1016.7 1016.4
12 21.08 СВ 3 20 км 3/0
[Ci fib]
+37.7 +2.7 11 +34 +41 очень
жарко
1015.1 1014.8
15 21.08 СВ 3 20 км ясно +36.7 +1.8 11 +33 +34 жарко 1014.2 1013.9 +38.2
18 21.08 С 3 10 км ясно +28.0 +2.1 19 +26 +26 жарко 1014.5 1014.2
21 21.08 СВ 3 10 км ясно +29.0 +7.4 26 +28 +28 жарко 1014.9 1014.6
00 22.08 С 3 10 км ясно +21.9 +9.5 45 +23 +23 комфорт 1014.3 1013.9
03 22.08 С 2 20 км ясно +22.1 +11.2 50 +24 +25 комфорт 1014.4 1014.0 +20.0
06 22.08 СВ 4 20 км ясно +31.7 +8.5 24 +31 +36 жарко 1014.3 1014.0
09 22.08 СВ 3 20 км ясно +37.3 +2.6 12 +34 +46 очень
жарко
1013.7 1013.3
12 22.08 СВ 5
{11}
20 км ясно +38.8 +2.6 11 +36 +40 очень
жарко
1012.7 1012.4
15 22.08 В 2
{12}
20 км ясно +37.8 +1.0 10 +34 +34 очень
жарко
1012.5 1012.2 +39.3
18 22.08 ЮВ 2 10 км ясно +32.2 +3.7 17 +30 +30 жарко 1013.9 1013.6
21 22.08 В 2 10 км ясно +27.3 +4.8 24 +26 +26 жарко 1014.3 1014.0
00 23.08 В 2 10 км ясно +23.5 +6.3 33 +24 +24 комфорт 1014.8 1014.4
03 23.08 СВ 3 20 км 4/0
[Ci fib]
+21.4 +9.1 45 +23 +23 комфорт 1015.6 1015.2 +18.9
06 23.08 В 5 20 км 8/0
[Ci fib]
+32.2 +8.4 23 +31 +35 жарко 1015.7 1015.4

 

Местоположение метеостанции Юста (Калмыкия, Россия): широта 47.13 долгота 46.32 высота над уровнем моря 3 м.

В архиве по умолчанию представлена погода в Юсте за последнюю неделю. Архивные данные за месяц целиком и за предыдущие месяцы, начиная с января 2011 года, Вы можете получить, выбрав интересующий диапазон дат из раскрывающегося списка и нажав кнопку "Ввод!".


*Определитесь, кто Вы:
робот инопланетянин человек

Внимание! Время в таблицах - всемирное. Для получения местного времени необходимо прибавить поправку, которая равна 3 ч.

Смотрите также архив погоды в соседних городах и на ближайших метеорологических станциях:

Погода в Харабали (Астраханская область, Россия) (76 км)
Погода в Утте (Калмыкия, Россия) (88 км)
Погода в Черный Яр (Астраханская область, Россия) (106 км)
Погода в Досанге (Астраханская область, Россия) (124 км)
Погода в Верхнем Баскунчаке (Астраханская область, Россия) (125 км)
Погода в Яшкуле (Калмыкия, Россия) (129 км)
Погода в Кетченерах (Калмыкия, Россия) (134 км)
Погода в Малых Дербетах (Калмыкия, Россия) (151 км)
Погода в Астрахани (Астраханская область, Россия) (158 км)
Погода в Лимане (Астраханская область, Россия) (163 км)

Пояснения к столбцам:

Ветер - указаны скорость ветра в м/с - средняя за 10 мин, порывы в срок и между сроками (в фигурных скобках) и направление, откуда дует ветер: С - северный, СВ - северо-восточный, В - восточный, ЮВ - юго-восточный, Ю - южный, ЮЗ - юго-западный, З - западный, СЗ - северо-западный.
Видимость - горизонтальная дальность видимости в метрах или километрах. При видимости от 1 до 10 км при отсутствии осадков обычно наблюдается дымка, при ухудшении видимости до 1 км и менее - туман. В сухую погоду видимость может ухудшаться дымом, пылью или мглою.
Явления - указаны атмосферные явления, наблюдавшиеся в срок или в последний час перед сроком; фигурными скобками обозначены явления, наблюдавшиеся между сроками (за 1-3 часа до срока); квадратными скобками обозначены град или гололедные отложения с указанием их диаметра в мм.
Облачность - указаны через наклонную черту общая и нижняя облачность в баллах и высота нижней границы облаков в метрах; квадратными скобками обозначены формы облаков: Ci - перистые, Cs - перисто-слоистые, Cc - перисто-кучевые, Ac - высококучевые, As - высокослоистые, Sc - слоисто-кучевые, Ns - слоисто-дождевые, Cu - кучевые, Cb - кучево-дождевые. Подробнее классификацию облаков см. в Атласе облаков (PDF).
T - Температура воздуха - температура, измеренная на высоте 2 м над землей.
Td - Температура точки росы - температура, при понижении до которой содержащийся в воздухе водяной пар достигнет насыщения.
f - Относительная влажность воздуха - влажноcть воздуха, измеренная на высоте 2 м над землей.
Te - Эффективная температура - температура, которую ощущает одетый по сезону человек в тени. Характеристика душности погоды. При расчете учитывается влияние влажности воздуха и скорости ветра на теплоощущения человека.
Tes - Эффективная температура на солнце - температура, которую ощущает человек, с поправкой на солнечный нагрев. Характеристика знойности погоды. Зависит от высоты солнца над горизонтом, облачности и скорости ветра. Ночью, в пасмурную погоду, а также при ветре 12 м/с и более поправка равна нулю.
P - Атмосферное давление - приведенное к уровню моря атмосферное давление.
Po - Атмосферное давление - измеренное на уровне метеостанции атмосферное давление.
Tmin - Минимальная температура - минимум температуры воздуха на высоте 2 м над землей.
Tmax - Максимальная температура - максимум температуры воздуха на высоте 2 м над землей.
R - Количество осадков - Количество выпавших осадков за период времени, мм. При наведении курсора мыши на число - период времени, за который выпало указанное количество осадков.
R24 - Количество осадков - Количество выпавших осадков за 24 часа, мм.
S - Снежный покров - Высота снежного покрова, см. При наведении курсора мыши на число - состояние снежного покрова и степень покрытия местности в баллах.